www.pogodaiklimat.ru

Погода и климат >> Архив погоды >> Малайзия >> Kota Kinabalu


ПОГОДА в Kota Kinabalu

  • Прогноз погоды в Kota Kinabalu
  • Монитор погоды в Kota Kinabalu
  • Климат города

АРХИВ ПОГОДЫ в Kota Kinabalu

Время (UTC), дата Ветер
(напр.,м/с)
 
Видим.   Явления Облачность Т
(С)
Тd
(С)
f
(%)
Тe
(С)
Тes
(С)
Комфортность P
(гПа)
Po
(гПа)
Тmin
(С)
Tmax
(С)
R
(мм)
R24
(мм)
S
(см)
18 13.08 Ю 3 18 км {дождь} 9/3 400 м
[Cu Sc Ac lent Cs]
+25.2 +24.0 93 +35 +35 очень
душно
1011.2 1010.9 2
21 13.08 Ю 3 18 км 9/3 420 м
[Cu Sc Ac lent Cs]
+25.2 +23.7 91 +34 +34 очень
душно
1010.6 1010.3
00 14.08 В 2 28 км 9/3 420 м
[Cu Sc Ac lent Cs]
+26.2 +24.0 88 +36 +38 очень
душно
1011.9 1011.6 +24.2 86
03 14.08 ЮЗ 4 28 км 9/4 420 м
[Cu Sc Ac lent Cs]
+29.5 +24.7 75 +42 +47 опасность
перегрева
1011.7 1011.4
06 14.08 СЗ 2 18 км осадки на расстоянии 9/5 400 м
[Cb cap Ac lent Cs]
+30.8 +26.7 79 +48 +53 опасность
перегрева
1009.2 1008.9
09 14.08 З 2 2000 м гроза, ливневой дождь 10/5 270 м
[Cb cap Ac lent Cs]
+26.3 +25.5 95 +38 +39 очень
душно
1009.5 1009.2
12 14.08 ЮЗ 3 1200 м сильный дождь {гроза} 10/6 240 м
[Cu Sc Ac lent Cs]
+24.1 +23.7 98 +33 +33 очень
душно
1012.0 1011.7 +32.2 89
15 14.08 ЮВ 3 9000 м слабый дождь 10/6 400 м
[Cu Sc Ac lent Cs]
+23.9 +23.4 97 +32 +32 очень
душно
1013.2 1012.9
18 14.08 ЮВ 3 12 км слабый дождь 10/6 400 м
[Cu Sc Ac lent Cs]
+24.1 +23.3 95 +32 +32 очень
душно
1011.5 1011.2 47
21 14.08 ЮВ 2 18 км {дождь} 9/4 420 м
[Cu Sc Ac lent Cs]
+24.0 +23.3 96 +32 +32 очень
душно
1010.0 1009.7
00 15.08 Ю 3 20 км слабый дождь 10/5 420 м
[Cu Sc Ac lent Cs]
+25.7 +23.7 89 +35 +36 очень
душно
1011.8 1011.5 +23.5 136
03 15.08 ЮЗ 6 28 км 9/3 420 м
[Cu Sc Ac lent Ci sp]
+29.0 +24.3 76 +41 +44 опасность
перегрева
1011.0 1010.7
06 15.08 З 2 28 км 9/6 420 м
[Cb cap Ac lent Cs]
+32.2 +27.0 74 +50 +54 опасность
перегрева
1008.8 1008.5 0.2
09 15.08 З 2 25 км в посл. час дождь 9/5 420 м
[Cu Sc Ac lent Cs]
+29.9 +26.1 80 +45 +46 опасность
перегрева
1007.9 1007.6
12 15.08 ЮВ 3 12 км слабый дождь 9/4 420 м
[Cu Sc Ac lent Cs]
+26.4 +24.0 87 +37 +37 очень
душно
1010.0 1009.7 +32.6 0.0
15 15.08 В 2 15 км гроза без осадков {дождь} 9/4 420 м
[Cb cap Ac lent Cs]
+25.4 +24.0 92 +35 +35 очень
душно
1010.9 1010.6
18 15.08 В 2 18 км зарница {гроза} 9/3 420 м
[Cb cap Ac lent Cs]
+25.0 +23.8 93 +34 +34 очень
душно
1009.5 1009.2 3
21 15.08 ЮЗ 2 6000 м слабый дождь 9/5 400 м
[Cu Sc Ac lent Cs]
+24.6 +23.5 94 +33 +33 очень
душно
1009.5 1009.2
00 16.08 В 2 22 км в посл. час дождь 9/4 400 м
[Cu Sc Ac lent Cs]
+24.7 +23.8 95 +34 +35 очень
душно
1011.0 1010.7 +23.9 17
03 16.08 З 1 25 км 9/5 420 м
[Cu Sc Ac lent Cs]
+28.0 +24.5 81 +39 +46 очень
душно
1010.6 1010.3
06 16.08 З 2 6000 м слабый дождь 9/5 420 м
[Cb cap Ac lent Cs]
+26.8 +25.1 90 +39 +44 очень
душно
1008.7 1008.4 0.2
09 16.08 В 1 3000 м сильный дождь 10/4 150 м
[Cu Sc Ac lent Cs]
+24.9 +23.8 94 +34 +35 очень
душно
1008.2 1007.9
12 16.08 ЮЗ 1 10 км слабый дождь 9/3 420 м
[Cu Sc Ac lent Cs]
+25.2 +24.0 93 +35 +35 очень
душно
1010.2 1009.9 +30.1 14
15 16.08 ЮВ 2 12 км в посл. час дождь 9/3 400 м
[Cu Sc Ac lent Cs]
+24.1 +23.2 95 +32 +32 очень
душно
1010.6 1010.3
18 16.08 Ю 3 9000 м слабый дождь 9/4 420 м
[Cu Sc Ac lent Cs]
+24.3 +23.1 93 +32 +32 очень
душно
1009.5 1009.2 30
21 16.08 Ю 5 9000 м слабый дождь 9/4 400 м
[Cu Sc Ac lent Cs]
+24.3 +23.5 95 +33 +33 очень
душно
1009.5 1009.2
00 17.08 ЮВ 3 10 км слабый дождь 10/6 360 м
[Cu Sc Ac und Cs]
+23.7 +22.9 95 +31 +32 очень
душно
1011.1 1010.8 +23.4 55
03 17.08 Ю 4 25 км в посл. час дождь 10/6 400 м
[Cu Sc Ac und Cs]
+26.5 +22.9 81 +35 +38 очень
душно
1011.4 1011.1
06 17.08 ЮЗ 2 25 км {дождь} 9/5 420 м
[Cu Sc Ac lent Cs]
+28.8 +23.2 72 +39 +44 очень
душно
1008.7 1008.4 0.0
09 17.08 СЗ 1 25 км 10/5 420 м
[Cu Sc Ac lent Cs]
+28.6 +23.6 74 +39 +40 очень
душно
1008.2 1007.9
12 17.08 ЮВ 2 18 км 9/4 420 м
[Sc Ac lent Cs]
+26.4 +24.6 90 +37 +37 очень
душно
1010.0 1009.7 +27.1
15 17.08 Ю 4 6000 м слабый дождь 9/4 420 м
[Cu Sc Ac lent Cs]
+24.5 +22.7 90 +32 +32 очень
душно
1011.8 1011.5
18 17.08 ЮВ 2 15 км 9/3 420 м
[Cu Sc Ac lent Cs]
+24.1 +22.8 92 +32 +32 очень
душно
1009.2 1008.9 2
21 17.08 В 3 18 км 9/3 420 м
[Cu Sc Ac lent Cs]
+23.5 +22.0 91 +30 +30 очень
душно
1007.6 1007.3
00 18.08 ЮВ 1 28 км 9/4 420 м
[Cu Sc Ac und Cs]
+25.4 +22.6 85 +33 +35 очень
душно
1010.7 1010.4 +23.9 2
03 18.08 ЮЗ 3 28 км 9/1 420 м
[Cu Sc Ac lent Ci sp]
+30.5 +23.8 67 +42 +50 опасность
перегрева
1011.1 1010.8
06 18.08 З 1 24 км 9/1 420 м
[Cu Sc Ac trans Ci sp]
+32.7 +26.0 68 +48 +59 опасность
перегрева
1008.9 1008.6
09 18.08 З 2 24 км 9/1 420 м
[Cu Sc Ac trans Ci sp]
+31.5 +23.6 63 +43 +44 опасность
перегрева
1008.3 1008.0
12 18.08 З 2 18 км 9/3 420 м
[Cu Sc Ac lent Cs]
+29.6 +22.8 67 +39 +39 очень
душно
1010.5 1010.2 +29.8
15 18.08 ЮВ 2 18 км 9/4 420 м
[Cu Sc Ac lent Cs]
+26.7 +23.0 80 +36 +36 очень
душно
1011.7 1011.4
18 18.08 В 3 18 км 9/4 420 м
[Cu Sc Ac lent Cs]
+25.8 +22.6 83 +34 +34 очень
душно
1010.2 1009.9
21 18.08 В 2 18 км 9/3 420 м
[Cu Sc Ac lent Cs]
+25.5 +22.2 82 +33 +33 очень
душно
1009.9 1009.6
00 19.08 В 3 28 км 9/1 420 м
[Cu Sc Ac lent Cs]
+27.5 +22.8 76 +37 +39 очень
душно
1011.2 1010.9 +25.6
03 19.08 ЮЗ 3 28 км 9/5 420 м
[Cu Sc Ac lent Cs]
+30.8 +24.1 68 +43 +48 опасность
перегрева
1011.4 1011.1
06 19.08 СЗ 1 28 км 9/5 420 м
[Cu Sc Ac lent Cs]
+33.0 +24.1 60 +45 +51 опасность
перегрева
1009.1 1008.8
09 19.08 З 1 28 км 9/5 420 м
[Cb cap Ac lent Cs]
+31.1 +24.0 66 +43 +44 опасность
перегрева
1008.5 1008.2
12 19.08 ЮВ 2 18 км 9/3 420 м
[Cu Sc Ac lent Cs]
+27.9 +23.2 76 +38 +38 очень
душно
1010.0 1009.7 +33.3
15 19.08 В 3 18 км 9/3 420 м
[Cu Sc Ac lent Cs]
+26.5 +21.9 76 +34 +34 очень
душно
1010.2 1009.9
18 19.08 ЮВ 2 18 км 9/1 420 м
[Cu Sc Ac lent Cs]
+25.2 +21.5 80 +32 +32 очень
душно
1009.5 1009.2
21 19.08 В 3 18 км 9/1 420 м
[Cu Sc Ac lent Cs]
+24.8 +20.9 79 +31 +31 очень
душно
1008.7 1008.4
00 20.08 В 3 30 км 9/3 450 м
[Sc Ac lent Ci fib]
+26.5 +21.4 74 +34 +35 очень
душно
1010.1 1009.8 +24.6
03 20.08 З 2 30 км 9/5 450 м
[Sc Ac lent Ci fib]
+31.4 +23.0 61 +42 +48 опасность
перегрева
1010.2 1009.9
06 20.08 З 1 28 км 9/3 420 м
[Cu Sc Ac lent Cs]
+33.4 +23.2 55 +44 +52 опасность
перегрева
1008.1 1007.8
09 20.08 З 1 20 км 9/3 420 м
[Cu Sc Ac lent Ci sp]
+32.0 +24.9 66 +45 +47 опасность
перегрева
1006.7 1006.4
12 20.08 ЮВ 1 18 км 9/3 420 м
[Cu Sc Ac lent Cs]
+28.3 +24.0 78 +39 +39 очень
душно
1007.7 1007.4 +33.7

 

Местоположение метеостанции Kota Kinabalu (Малайзия): широта 5.93 долгота 116.05 высота над уровнем моря 3 м.

В архиве по умолчанию представлена погода в Kota Kinabalu за последнюю неделю. Архивные данные за месяц целиком и за предыдущие месяцы, начиная с января 2011 года, Вы можете получить, выбрав интересующий диапазон дат из раскрывающегося списка и нажав кнопку "Ввод!".

Внимание! Время в таблицах - всемирное. Для получения местного времени необходимо прибавить поправку, которая в Kota Kinabalu равна 8 ч.

Смотрите также архив погоды в соседних городах и на ближайших метеорологических станциях:

Погода в Labuan (Малайзия) (113 км)
Погода в Brunei Airport (Бруней) (167 км)
Погода в Sandakan (Малайзия) (222 км)
Погода в Longbawan (Индонезия) (248 км)
Погода в Tawau (Малайзия) (274 км)
Погода в Miri (Малайзия) (290 км)
Погода в Tarakan (Индонезия) (334 км)
Погода в Tanjung Selor (Индонезия) (371 км)
Погода в Tanjung Redep (Индонезия) (451 км)
Погода в Bintulu (Малайзия) (452 км)

Пояснения к столбцам:

Ветер - указаны скорость ветра в м/с - средняя за 10 мин, порывы в срок и между сроками (в фигурных скобках) и направление, откуда дует ветер: С - северный, СВ - северо-восточный, В - восточный, ЮВ - юго-восточный, Ю - южный, ЮЗ - юго-западный, З - западный, СЗ - северо-западный.
Видимость - горизонтальная дальность видимости в метрах или километрах. При видимости от 1 до 10 км при отсутствии осадков обычно наблюдается дымка, при ухудшении видимости до 1 км и менее - туман. В сухую погоду видимость может ухудшаться дымом, пылью или мглою.
Явления - указаны атмосферные явления, наблюдавшиеся в срок или в последний час перед сроком; фигурными скобками обозначены явления, наблюдавшиеся между сроками (за 1-3 часа до срока); квадратными скобками обозначены град или гололедные отложения с указанием их диаметра в мм.
Облачность - указаны через наклонную черту общая и нижняя облачность в баллах и высота нижней границы облаков в метрах; квадратными скобками обозначены формы облаков: Ci - перистые, Cs - перисто-слоистые, Cc - перисто-кучевые, Ac - высококучевые, As - высокослоистые, Sc - слоисто-кучевые, Ns - слоисто-дождевые, Cu - кучевые, Cb - кучево-дождевые. Подробнее классификацию облаков см. в Атласе облаков (PDF).
T - Температура воздуха - температура, измеренная на высоте 2 м над землей.
Td - Температура точки росы - температура, при понижении до которой содержащийся в воздухе водяной пар достигнет насыщения.
f - Относительная влажность воздуха - влажноcть воздуха, измеренная на высоте 2 м над землей.
Te - Эффективная температура - температура, которую ощущает одетый по сезону человек в тени. Характеристика душности погоды. При расчете учитывается влияние влажности воздуха и скорости ветра на теплоощущения человека.
Tes - Эффективная температура на солнце - температура, которую ощущает человек, с поправкой на солнечный нагрев. Характеристика знойности погоды. Зависит от высоты солнца над горизонтом, облачности и скорости ветра. Ночью, в пасмурную погоду, а также при ветре 12 м/с и более поправка равна нулю.
P - Атмосферное давление - приведенное к уровню моря атмосферное давление.
Po - Атмосферное давление - измеренное на уровне метеостанции атмосферное давление.
Tmin - Минимальная температура - минимум температуры воздуха на высоте 2 м над землей.
Tmax - Максимальная температура - максимум температуры воздуха на высоте 2 м над землей.
R - Количество осадков - Количество выпавших осадков за период времени, мм. При наведении курсора мыши на число - период времени, за который выпало указанное количество осадков.
R24 - Количество осадков - Количество выпавших осадков за 24 часа, мм.
S - Снежный покров - Высота снежного покрова, см. При наведении курсора мыши на число - состояние снежного покрова и степень покрытия местности в баллах.